Tracking 35274 objects as of 11-Sep-2026
HD Live streaming from Space Station
objects crossing your sky now

FREGAT DEB

Track FREGAT DEB now!
10-day predictions


NORAD ID: 45999
Int'l Code: 2011-037HA
Launch date: July 18, 2011
Source: Commonwealth of Independent States (former USSR) (CIS)
Launch site: TYURATAM MISSILE AND SPACE COMPLEX (TTMTR)

Note: This is SATELLITE DEBRIS
Your satellite tracking list
Your tracking list is empty




NASA's NSSDC Master Catalog

Two Line Element Set (TLE):
1 45999U 11037HA  26254.14084519 -.00000174  00000-0 -32542-3 0  9992
2 45999  51.4651 161.4611 2136026 209.2709 136.9714 10.06363852224811
Source of the keplerian elements: AFSPC